#timestamp,LO_Frequency,Hit,StdDev 
1622241255.8,286047023.2,P
1622241275.6,286047022.9,P
1622241295.4,286047021.0,P
1622241315.3,286047021.1,Y
1622241335.1,286046996.5,P
1622241355.9,286046998.2,N
1622241375.7,286046998.9,N
1622241395.5,286046998.3,N
1622241415.4,286047000.7,N
1622241435.2,286046998.4,N
1622241455.1,286046998.8,N
1622241456.0,286046998.8,N
1622241475.8,286047000.7,N
1622241495.6,286046998.2,N
1622241515.5,286046998.5,N
1622241535.3,286047001.2,N
1622241555.1,286046998.2,N
1622241575.9,286047000.8,N
1622241595.7,286046999.3,N
1622241615.6,286046998.7,N
1622241635.4,286046998.6,N
1622241655.2,286046996.9,N
1622241675.1,286046999.3,N
1622241676.0,286046999.3,N
1622241695.8,286047000.1,N
1622241715.6,286047000.1,N
1622241735.5,286046999.9,N
1622241755.3,286047001.4,N
1622241775.2,286047001.7,N
1622241795.9,286047005.6,N
1622241815.7,286047005.7,N
1622241835.6,286047007.4,N
1622241855.4,286047006.4,N
1622241875.2,286047006.9,N
1622241895.1,286047006.4,N
1622241896.0,286047006.4,N
1622241915.8,286047007.2,N
1622241935.7,286047006.4,N
1622241955.5,286047006.6,N
1622241975.3,286047005.0,N
1622241995.2,286047007.2,N
1622242015.9,286047006.6,N
1622242035.7,286047007.0,N
1622242055.6,286047006.7,N
1622242075.4,286047006.2,N
1622242095.3,286047008.7,N
1622242115.1,286047010.4,N
1622242116.0,286047010.4,N
1622242135.8,286047010.4,N
1622242155.7,286047010.0,N
1622242175.5,286047009.7,N
1622242195.3,286047010.4,N
1622242215.2,286047010.3,N
1622242235.0,286047010.8,Y
1622242235.9,286047010.8,P
1622242255.8,286047001.6,N
1622242275.6,286047001.7,N
1622242295.4,286047003.5,N
1622242315.3,286047005.6,N
1622242335.1,286047005.9,N
1622242355.8,286047003.4,N
1622242375.7,286047005.4,N
1622242395.5,286047003.3,N
1622242415.4,286047005.6,N
1622242435.2,286047005.7,N
1622242455.0,286047003.2,N
1622242455.9,286047003.2,N
1622242475.8,286047007.6,Y
1622242495.6,286047001.4,P
1622242515.4,286047001.8,N
1622242535.3,286047001.5,N
1622242555.1,286047004.3,Y
1622242575.9,286047000.9,P
1622242595.7,286047000.8,N
1622242615.5,286047000.5,N
1622242635.4,286047002.7,Y
1622242655.2,286047000.4,P
1622242675.0,286047000.9,N
1622242676.0,286047000.9,N
1622242695.8,286047000.3,N
1622242715.6,286047000.3,N
1622242735.5,286047000.1,N
1622242755.3,286047000.2,N
1622242775.1,286047002.3,Y
1622242795.9,286046999.7,P
